• In Moldova, Republic
  • List of Countries
  • For 7 days
  • Water Temperature
  • Satellite Maps
  • Weather Map
  • Weather Widgets
  • user-avatar
    Login

    Hourly Weather Ali Bayramli

    Today, 23 April, Sunday

    Time Temperature Precipitation Wind Pressure Humidity
    00:00 +10°C° 0 mm 3 mps 765 mmHg 65%
    01:00 +10°C° 0 mm 3 mps 765 mmHg 67%
    02:00 +10°C° 0 mm 2 mps 765 mmHg 69%
    03:00 +9°C° 0 mm 2 mps 765 mmHg 70%
    04:00 +10°C° 0 mm 2 mps 764 mmHg 70%
    05:00 +10°C° 0 mm 2 mps 764 mmHg 70%
    06:00 +10°C° 0 mm 2 mps 764 mmHg 70%
    07:00 +13°C° 0 mm 2 mps 763 mmHg 65%
    08:00 +15°C° 0 mm 2 mps 763 mmHg 60%
    09:00 +17°C° 0 mm 3 mps 762 mmHg 53%
    10:00 +18°C° 0 mm 3 mps 761 mmHg 51%
    11:00 +19°C° 0 mm 3 mps 760 mmHg 49%
    12:00 +20°C° 0 mm 4 mps 759 mmHg 47%
    13:00 +20°C° 0 mm 4 mps 758 mmHg 47%
    14:00 +21°C° 0 mm 4 mps 757 mmHg 47%
    15:00 +21°C° 0 mm 4 mps 756 mmHg 47%
    16:00 +20°C° 0 mm 4 mps 755 mmHg 52%
    17:00 +19°C° 0 mm 4 mps 755 mmHg 56%
    18:00 +17°C° 0 mm 4 mps 754 mmHg 61%
    19:00 +16°C° 0 mm 3 mps 753 mmHg 66%
    20:00 +14°C° 0 mm 3 mps 753 mmHg 71%
    21:00 +14°C° 0 mm 2 mps 752 mmHg 75%
    22:00 +14°C° 0 mm 2 mps 752 mmHg 76%
    23:00 +14°C° 0 mm 2 mps 751 mmHg 78%

    Tomorrow, 24 April, Monday

    Time Temperature Precipitation Wind Pressure Humidity
    00:00 +14°C° 0 mm 1 mps 750 mmHg 79%
    01:00 +14°C° 0 mm 2 mps 750 mmHg 80%
    02:00 +13°C° 0 mm 4 mps 750 mmHg 81%
    03:00 +12°C° 0 mm 5 mps 750 mmHg 82%
    04:00 +13°C° 0 mm 5 mps 750 mmHg 78%
    05:00 +14°C° 0 mm 6 mps 751 mmHg 74%
    06:00 +14°C° 0 mm 6 mps 751 mmHg 71%
    07:00 +16°C° 0 mm 6 mps 752 mmHg 61%
    08:00 +19°C° 0 mm 6 mps 753 mmHg 52%
    09:00 +21°C° 0 mm 6 mps 753 mmHg 42%
    10:00 +22°C° 0.1 mm 6 mps 754 mmHg 40%
    11:00 +23°C° 0.1 mm 6 mps 754 mmHg 38%
    12:00 +24°C° 0.1 mm 6 mps 754 mmHg 35%
    13:00 +23°C° 0.2 mm 7 mps 755 mmHg 36%
    14:00 +23°C° 0.2 mm 8 mps 755 mmHg 37%
    15:00 +22°C° 0.2 mm 9 mps 756 mmHg 37%
    16:00 +21°C° 0.1 mm 9 mps 757 mmHg 39%
    17:00 +18°C° 0.1 mm 8 mps 757 mmHg 42%
    18:00 +17°C° 0.1 mm 7 mps 758 mmHg 44%
    19:00 +16°C° 0 mm 6 mps 759 mmHg 45%
    20:00 +15°C° 0 mm 6 mps 760 mmHg 46%
    21:00 +14°C° 0 mm 5 mps 760 mmHg 48%
    22:00 +13°C° 0 mm 4 mps 761 mmHg 50%
    23:00 +13°C° 0 mm 3 mps 761 mmHg 52%

    Day after tomorrow, 25 April, Tuesday

    Time Temperature Precipitation Wind Pressure Humidity
    00:00 +12°C° 0 mm 3 mps 761 mmHg 55%
    01:00 +13°C° 0 mm 2 mps 761 mmHg 57%
    02:00 +12°C° 0 mm 2 mps 762 mmHg 59%
    03:00 +12°C° 0 mm 2 mps 762 mmHg 60%
    04:00 +12°C° 0 mm 1 mps 762 mmHg 59%
    05:00 +13°C° 0 mm 1 mps 763 mmHg 59%
    06:00 +13°C° 0 mm 1 mps 763 mmHg 58%
    07:00 +15°C° 0 mm 2 mps 764 mmHg 53%
    08:00 +16°C° 0 mm 2 mps 764 mmHg 47%
    09:00 +18°C° 0 mm 2 mps 765 mmHg 42%
    10:00 +19°C° 0 mm 4 mps 765 mmHg 42%
    11:00 +19°C° 0 mm 5 mps 765 mmHg 42%
    12:00 +20°C° 0 mm 6 mps 765 mmHg 42%
    13:00 +18°C° 0 mm 7 mps 765 mmHg 45%
    14:00 +17°C° 0 mm 9 mps 766 mmHg 48%
    15:00 +16°C° 0 mm 10 mps 766 mmHg 50%
    16:00 +14°C° 0 mm 10 mps 766 mmHg 52%
    17:00 +12°C° 0 mm 10 mps 767 mmHg 53%
    18:00 +11°C° 0 mm 9 mps 768 mmHg 54%
    19:00 +11°C° 0 mm 9 mps 768 mmHg 51%
    20:00 +11°C° 0 mm 8 mps 769 mmHg 47%
    21:00 +11°C° 0 mm 7 mps 770 mmHg 44%
    22:00 +11°C° 0 mm 7 mps 770 mmHg 43%
    23:00 +11°C° 0 mm 6 mps 770 mmHg 42%

    26 April, Wednesday

    Time Temperature Precipitation Wind Pressure Humidity
    00:00 +12°C° 0 mm 5 mps 771 mmHg 41%
    01:00 +12°C° 0 mm 4 mps 771 mmHg 43%
    02:00 +12°C° 0 mm 4 mps 771 mmHg 45%
    03:00 +11°C° 0 mm 3 mps 771 mmHg 47%
    04:00 +11°C° 0 mm 3 mps 772 mmHg 49%
    05:00 +11°C° 0 mm 3 mps 772 mmHg 51%
    06:00 +11°C° 0 mm 3 mps 773 mmHg 53%
    07:00 +12°C° 0 mm 3 mps 773 mmHg 50%
    08:00 +13°C° 0 mm 4 mps 773 mmHg 47%
    09:00 +14°C° 0 mm 4 mps 773 mmHg 44%
    10:00 +15°C° 0 mm 4 mps 773 mmHg 41%
    11:00 +17°C° 0 mm 4 mps 773 mmHg 39%
    12:00 +17°C° 0 mm 5 mps 773 mmHg 36%
    13:00 +17°C° 0 mm 5 mps 772 mmHg 37%
    14:00 +16°C° 0 mm 5 mps 772 mmHg 38%
    15:00 +16°C° 0 mm 5 mps 771 mmHg 38%
    16:00 +15°C° 0 mm 5 mps 772 mmHg 41%
    17:00 +15°C° 0 mm 5 mps 772 mmHg 45%
    18:00 +14°C° 0 mm 4 mps 772 mmHg 48%
    19:00 +12°C° 0 mm 4 mps 772 mmHg 53%
    20:00 +11°C° 0 mm 3 mps 772 mmHg 58%
    21:00 +10°C° 0 mm 2 mps 772 mmHg 63%
    22:00 +10°C° 0 mm 2 mps 772 mmHg 66%
    23:00 +10°C° 0 mm 1 mps 772 mmHg 69%

    27 April, Thursday

    Time Temperature Precipitation Wind Pressure Humidity
    00:00 +9°C° 0 mm 1 mps 771 mmHg 72%
    01:00 +9°C° 0 mm 1 mps 771 mmHg 73%
    02:00 +9°C° 0 mm 1 mps 771 mmHg 74%
    03:00 +9°C° 0 mm 1 mps 771 mmHg 75%
    04:00 +9°C° 0 mm 1 mps 771 mmHg 72%
    05:00 +10°C° 0 mm 1 mps 771 mmHg 69%
    06:00 +11°C° 0 mm 1 mps 771 mmHg 66%
    07:00 +12°C° 0 mm 1 mps 771 mmHg 57%
    08:00 +14°C° 0 mm 1 mps 771 mmHg 48%
    09:00 +16°C° 0 mm 2 mps 771 mmHg 39%
    10:00 +17°C° 0 mm 2 mps 771 mmHg 37%
    11:00 +18°C° 0 mm 3 mps 770 mmHg 34%
    12:00 +19°C° 0 mm 3 mps 770 mmHg 32%
    13:00 +19°C° 0 mm 4 mps 770 mmHg 33%
    14:00 +19°C° 0 mm 5 mps 769 mmHg 33%
    15:00 +20°C° 0 mm 5 mps 769 mmHg 34%
    16:00 +19°C° 0 mm 5 mps 769 mmHg 37%
    17:00 +18°C° 0 mm 4 mps 769 mmHg 40%
    18:00 +17°C° 0 mm 4 mps 769 mmHg 43%
    19:00 +14°C° 0 mm 3 mps 770 mmHg 48%
    20:00 +13°C° 0 mm 3 mps 770 mmHg 54%
    21:00 +13°C° 0 mm 2 mps 770 mmHg 59%
    22:00 +12°C° 0 mm 2 mps 770 mmHg 61%
    23:00 +12°C° 0 mm 1 mps 770 mmHg 62%

    28 April, Friday

    Time Temperature Precipitation Wind Pressure Humidity
    00:00 +12°C° 0 mm 1 mps 769 mmHg 64%
    01:00 +12°C° 0 mm 1 mps 769 mmHg 62%
    02:00 +12°C° 0 mm 1 mps 769 mmHg 61%
    03:00 +12°C° 0 mm 1 mps 769 mmHg 60%
    04:00 +13°C° 0 mm 1 mps 769 mmHg 59%
    05:00 +13°C° 0 mm 1 mps 769 mmHg 58%
    06:00 +14°C° 0 mm 1 mps 769 mmHg 57%
    07:00 +15°C° 0 mm 1 mps 769 mmHg 52%
    08:00 +16°C° 0 mm 1 mps 769 mmHg 47%
    09:00 +18°C° 0 mm 2 mps 769 mmHg 42%
    10:00 +19°C° 0 mm 3 mps 769 mmHg 40%
    11:00 +20°C° 0 mm 4 mps 768 mmHg 37%
    12:00 +21°C° 0 mm 5 mps 768 mmHg 35%
    13:00 +21°C° 0 mm 5 mps 767 mmHg 36%
    14:00 +21°C° 0 mm 6 mps 767 mmHg 37%
    15:00 +21°C° 0 mm 6 mps 766 mmHg 38%
    16:00 +20°C° 0 mm 6 mps 766 mmHg 41%
    17:00 +19°C° 0 mm 5 mps 766 mmHg 44%
    18:00 +17°C° 0 mm 4 mps 766 mmHg 47%
    19:00 +16°C° 0 mm 3 mps 766 mmHg 51%
    20:00 +15°C° 0 mm 2 mps 766 mmHg 55%
    21:00 +14°C° 0 mm 2 mps 767 mmHg 59%
    22:00 +14°C° 0 mm 1 mps 766 mmHg 59%
    23:00 +13°C° 0 mm 1 mps 766 mmHg 59%
    Show more